AWB201 SBSP-SBPA

Flight info

Callsign AWB201
Flight time 2h 38m
Altitude 14000
Route UBSOD DCT UBREG
Aircraft DC6/M-SDE1FGHIRWXY/S

Departure

Time 2026-05-05 14:58
Airport Congonhas–Deputado Freitas Nobre Airport (SBSP)

Arrival

Time 2026-05-05 17:36
Airport Porto Alegre-Salgado Filho International Airport (SBPA)
Time Latitude Longitude Altitude Speed Heading
2026-05-05 14:08 -23.62812 -46.65754 2600 ft 0 kts 239°
2026-05-05 14:08 -23.62812 -46.65753 2600 ft 0 kts 239°
2026-05-05 14:44 -23.62812 -46.65752 2600 ft 0 kts 239°
2026-05-05 14:47 -23.62811 -46.65752 2600 ft 0 kts 239°
2026-05-05 14:52 -23.62812 -46.65753 2600 ft 1 kts 238°
2026-05-05 14:52 -23.62819 -46.65756 2600 ft 1 kts 168°
2026-05-05 14:52 -23.62824 -46.65748 2600 ft 3 kts 107°
2026-05-05 14:52 -23.62807 -46.65708 2601 ft 9 kts 22°
2026-05-05 14:53 -23.62718 -46.65724 2602 ft 17 kts 331°
2026-05-05 14:53 -23.62591 -46.65809 2602 ft 19 kts 329°
2026-05-05 14:53 -23.62571 -46.65822 2601 ft 0 kts 329°
2026-05-05 14:53 -23.62555 -46.65832 2601 ft 10 kts 329°
2026-05-05 14:54 -23.62458 -46.65903 2601 ft 23 kts 326°
2026-05-05 14:54 -23.62336 -46.65988 2600 ft 21 kts 328°
2026-05-05 14:54 -23.62215 -46.66067 2599 ft 20 kts 335°
2026-05-05 14:54 -23.62140 -46.66114 2592 ft 6 kts 325°
2026-05-05 14:55 -23.62107 -46.66137 2593 ft 5 kts 336°
2026-05-05 14:55 -23.62068 -46.66142 2591 ft 6 kts 12°
2026-05-05 14:55 -23.62037 -46.66107 2592 ft 5 kts 81°
2026-05-05 14:55 -23.62047 -46.66077 2589 ft 3 kts 134°
2026-05-05 14:56 -23.62052 -46.66072 2591 ft 0 kts 146°
2026-05-05 14:56 -23.62065 -46.66063 2591 ft 10 kts 146°
2026-05-05 14:57 -23.62238 -46.65945 2611 ft 51 kts 149°
2026-05-05 14:57 -23.62684 -46.65633 2618 ft 99 kts 148°
2026-05-05 14:57 -23.63323 -46.65181 2754 ft 116 kts 144°
2026-05-05 14:57 -23.64015 -46.64650 2992 ft 124 kts 142°
2026-05-05 14:58 -23.64707 -46.64091 3324 ft 125 kts 143°
2026-05-05 14:58 -23.65482 -46.63594 3466 ft 136 kts 165°
2026-05-05 14:58 -23.66407 -46.63655 3727 ft 135 kts 203°
2026-05-05 14:58 -23.67154 -46.64286 3935 ft 140 kts 234°
2026-05-05 14:59 -23.67798 -46.65174 4083 ft 152 kts 232°
2026-05-05 14:59 -23.68472 -46.66024 4529 ft 145 kts 228°
2026-05-05 14:59 -23.69174 -46.66875 4794 ft 157 kts 229°
2026-05-05 14:59 -23.69923 -46.67745 5265 ft 151 kts 225°
2026-05-05 15:00 -23.70638 -46.68537 5639 ft 148 kts 228°
2026-05-05 15:00 -23.71109 -46.69094 5900 ft 146 kts 228°
2026-05-05 15:00 -23.72075 -46.70093 6319 ft 145 kts 211°
2026-05-05 15:00 -23.73076 -46.70272 6579 ft 153 kts 170°
2026-05-05 15:01 -23.73969 -46.69665 6916 ft 156 kts 130°
2026-05-05 15:01 -23.74335 -46.68563 7232 ft 156 kts 94°
2026-05-05 15:01 -23.74374 -46.67406 7553 ft 153 kts 95°
2026-05-05 15:01 -23.74450 -46.66239 7888 ft 155 kts 94°
2026-05-05 15:02 -23.74512 -46.65020 8128 ft 167 kts 94°
2026-05-05 15:02 -23.74582 -46.63711 8243 ft 177 kts 95°
2026-05-05 15:02 -23.74653 -46.62338 8451 ft 184 kts 94°
2026-05-05 15:02 -23.74725 -46.60927 8686 ft 188 kts 94°
2026-05-05 15:03 -23.74794 -46.59487 8936 ft 191 kts 94°
2026-05-05 15:03 -23.74870 -46.58025 9202 ft 195 kts 96°
2026-05-05 15:03 -23.75092 -46.56561 9451 ft 197 kts 108°
2026-05-05 15:03 -23.75628 -46.55198 9676 ft 199 kts 122°
2026-05-05 15:04 -23.76470 -46.54007 9956 ft 199 kts 136°
2026-05-05 15:04 -23.77513 -46.53005 10235 ft 200 kts 143°
2026-05-05 15:04 -23.78583 -46.52016 10540 ft 203 kts 139°
2026-05-05 15:04 -23.79621 -46.50958 10789 ft 205 kts 138°
2026-05-05 15:05 -23.81828 -46.48810 10975 ft 220 kts 139°
2026-05-05 15:05 -23.82982 -46.47677 11102 ft 226 kts 139°
2026-05-05 15:05 -23.84160 -46.46520 11235 ft 230 kts 139°
2026-05-05 15:06 -23.85355 -46.45346 11378 ft 232 kts 139°
2026-05-05 15:06 -23.86562 -46.44160 11526 ft 234 kts 139°
2026-05-05 15:06 -23.87790 -46.42954 11635 ft 239 kts 139°
2026-05-05 15:06 -23.89041 -46.41724 11727 ft 243 kts 139°
2026-05-05 15:07 -23.90306 -46.40483 11797 ft 246 kts 139°
2026-05-05 15:07 -23.91569 -46.39241 11874 ft 248 kts 139°
2026-05-05 15:07 -23.92855 -46.37975 11976 ft 249 kts 139°
2026-05-05 15:07 -23.94144 -46.36707 12082 ft 250 kts 139°
2026-05-05 15:08 -23.95439 -46.35435 12175 ft 250 kts 139°
2026-05-05 15:08 -23.96737 -46.34159 12272 ft 251 kts 139°
2026-05-05 15:08 -23.98034 -46.32881 12363 ft 252 kts 139°
2026-05-05 15:08 -23.99349 -46.31584 12343 ft 256 kts 139°
2026-05-05 15:09 -24.00669 -46.30271 12326 ft 255 kts 137°
2026-05-05 15:09 -24.01963 -46.28971 12321 ft 249 kts 139°
2026-05-05 15:09 -24.03244 -46.27734 12266 ft 244 kts 139°
2026-05-05 15:09 -24.04509 -46.26493 12205 ft 243 kts 138°
2026-05-05 15:10 -24.05745 -46.25264 12116 ft 237 kts 139°
2026-05-05 15:10 -24.06963 -46.24070 12035 ft 239 kts 138°
2026-05-05 15:10 -24.08205 -46.22827 12000 ft 245 kts 138°
2026-05-05 15:10 -24.09474 -46.21584 11982 ft 242 kts 139°
2026-05-05 15:11 -24.10706 -46.20376 12080 ft 235 kts 138°
2026-05-05 15:11 -24.11904 -46.19187 12138 ft 230 kts 138°
2026-05-05 15:11 -24.13074 -46.18028 12262 ft 223 kts 138°
2026-05-05 15:11 -24.14214 -46.16902 12359 ft 219 kts 138°
2026-05-05 15:12 -24.15337 -46.15792 12437 ft 215 kts 138°
2026-05-05 15:12 -24.16441 -46.14702 12507 ft 213 kts 138°
2026-05-05 15:12 -24.17527 -46.13628 12574 ft 211 kts 138°
2026-05-05 15:12 -24.18611 -46.12558 12617 ft 208 kts 139°
2026-05-05 15:13 -24.19679 -46.11509 12641 ft 205 kts 138°
2026-05-05 15:13 -24.20722 -46.10470 12703 ft 200 kts 138°
2026-05-05 15:13 -24.21740 -46.09462 12758 ft 195 kts 138°
2026-05-05 15:13 -24.22740 -46.08471 12797 ft 192 kts 138°
2026-05-05 15:14 -24.23725 -46.07496 12834 ft 189 kts 138°
2026-05-05 15:14 -24.24684 -46.06545 12902 ft 184 kts 138°
2026-05-05 15:14 -24.25623 -46.05614 12943 ft 181 kts 138°
2026-05-05 15:14 -24.26549 -46.04697 12967 ft 178 kts 138°
2026-05-05 15:15 -24.27459 -46.03795 13002 ft 175 kts 138°
2026-05-05 15:15 -24.28346 -46.02915 13016 ft 173 kts 138°
2026-05-05 15:15 -24.29235 -46.02036 13022 ft 171 kts 137°
2026-05-05 15:15 -24.30119 -46.01157 13017 ft 170 kts 138°
2026-05-05 15:16 -24.30996 -46.00291 13011 ft 169 kts 138°
2026-05-05 15:16 -24.31867 -45.99423 12999 ft 170 kts 137°
2026-05-05 15:16 -24.32749 -45.98531 13045 ft 174 kts 137°
2026-05-05 15:16 -24.33656 -45.97642 13116 ft 176 kts 138°
2026-05-05 15:17 -24.34570 -45.96737 13194 ft 178 kts 137°
2026-05-05 15:17 -24.35492 -45.95825 13279 ft 179 kts 137°
2026-05-05 15:17 -24.36419 -45.94903 13366 ft 180 kts 137°
2026-05-05 15:17 -24.37352 -45.93978 13457 ft 181 kts 137°
2026-05-05 15:18 -24.38287 -45.93047 13551 ft 182 kts 137°
2026-05-05 15:18 -24.39227 -45.92114 13648 ft 182 kts 137°
2026-05-05 15:18 -24.40156 -45.91190 13734 ft 183 kts 137°
2026-05-05 15:18 -24.41100 -45.90258 13812 ft 181 kts 138°
2026-05-05 15:19 -24.42034 -45.89333 13866 ft 180 kts 137°
2026-05-05 15:19 -24.42959 -45.88408 13916 ft 179 kts 137°
2026-05-05 15:19 -24.43884 -45.87489 13948 ft 178 kts 137°
2026-05-05 15:19 -24.44802 -45.86571 13979 ft 178 kts 137°
2026-05-05 15:20 -24.45724 -45.85657 14017 ft 178 kts 137°
2026-05-05 15:20 -24.46641 -45.84743 14042 ft 178 kts 137°
2026-05-05 15:20 -24.47559 -45.83832 14072 ft 178 kts 137°
2026-05-05 15:20 -24.48461 -45.82932 14097 ft 178 kts 137°
2026-05-05 15:21 -24.49383 -45.82006 14153 ft 182 kts 136°
2026-05-05 15:21 -24.50332 -45.81056 14268 ft 187 kts 137°
2026-05-05 15:21 -24.51308 -45.80094 14408 ft 190 kts 137°
2026-05-05 15:21 -24.52296 -45.79109 14552 ft 193 kts 137°
2026-05-05 15:22 -24.53299 -45.78112 14708 ft 195 kts 137°
2026-05-05 15:22 -24.54297 -45.77113 14878 ft 198 kts 137°
2026-05-05 15:22 -24.55323 -45.76093 15054 ft 199 kts 137°
2026-05-05 15:22 -24.56354 -45.75065 15243 ft 201 kts 137°
2026-05-05 15:23 -24.57390 -45.74030 15425 ft 201 kts 138°
2026-05-05 15:23 -24.58430 -45.72993 15615 ft 202 kts 137°
2026-05-05 15:23 -24.59461 -45.71963 15802 ft 202 kts 138°
2026-05-05 15:23 -24.60507 -45.70920 15992 ft 203 kts 138°
2026-05-05 15:24 -24.61550 -45.69878 16182 ft 203 kts 138°
2026-05-05 15:24 -24.62594 -45.68836 16356 ft 203 kts 138°
2026-05-05 15:24 -24.63652 -45.67779 16465 ft 207 kts 138°
2026-05-05 15:24 -24.64711 -45.66724 16605 ft 209 kts 138°
2026-05-05 15:25 -24.65792 -45.65643 16746 ft 211 kts 139°
2026-05-05 15:25 -24.66916 -45.64562 16933 ft 217 kts 140°
2026-05-05 15:25 -24.68047 -45.63438 17144 ft 221 kts 139°
2026-05-05 15:25 -24.69183 -45.62279 17380 ft 224 kts 139°
2026-05-05 15:26 -24.70342 -45.61115 17615 ft 227 kts 139°
2026-05-05 15:26 -24.71528 -45.59929 17780 ft 234 kts 139°
2026-05-05 15:26 -24.72755 -45.58703 17933 ft 241 kts 139°
2026-05-05 15:26 -24.74007 -45.57448 18105 ft 246 kts 139°
2026-05-05 15:27 -24.75476 -45.56513 18173 ft 249 kts 167°
2026-05-05 15:27 -24.77167 -45.56634 18268 ft 251 kts 201°
2026-05-05 15:27 -24.78541 -45.57802 18404 ft 254 kts 233°
2026-05-05 15:27 -24.79269 -45.59570 18598 ft 253 kts 248°
2026-05-05 15:28 -24.79928 -45.61367 18794 ft 253 kts 246°
2026-05-05 15:28 -24.80590 -45.63162 18982 ft 253 kts 247°
2026-05-05 15:28 -24.81249 -45.64961 19147 ft 253 kts 247°
2026-05-05 15:28 -24.81906 -45.66765 19323 ft 254 kts 247°
2026-05-05 15:29 -24.82552 -45.68548 19486 ft 254 kts 247°
2026-05-05 15:29 -24.83206 -45.70354 19662 ft 254 kts 247°
2026-05-05 15:29 -24.83857 -45.72159 19830 ft 254 kts 247°
2026-05-05 15:29 -24.84360 -45.74017 19961 ft 255 kts 261°
2026-05-05 15:30 -24.84467 -45.75964 20109 ft 255 kts 265°
2026-05-05 15:30 -24.84703 -45.77908 20165 ft 258 kts 256°
2026-05-05 15:30 -24.85159 -45.79833 20254 ft 260 kts 253°
2026-05-05 15:30 -24.85621 -45.81769 20347 ft 263 kts 255°
2026-05-05 15:31 -24.86026 -45.83712 20444 ft 264 kts 256°
2026-05-05 15:31 -24.86439 -45.85693 20546 ft 266 kts 255°
2026-05-05 15:31 -24.86728 -45.87043 20623 ft 268 kts 255°
2026-05-05 15:31 -24.87298 -45.89693 20770 ft 269 kts 255°
2026-05-05 15:32 -24.87582 -45.91025 20844 ft 270 kts 255°
2026-05-05 15:32 -24.88014 -45.93050 20959 ft 271 kts 255°
2026-05-05 15:32 -24.88447 -45.95079 21074 ft 271 kts 255°
2026-05-05 15:32 -24.88878 -45.97104 21189 ft 271 kts 255°
2026-05-05 15:33 -24.89304 -45.99103 21308 ft 272 kts 255°
2026-05-05 15:33 -24.89737 -46.01136 21416 ft 273 kts 255°
2026-05-05 15:33 -24.90171 -46.03178 21527 ft 273 kts 255°
2026-05-05 15:33 -24.90604 -46.05218 21658 ft 273 kts 255°
2026-05-05 15:34 -24.91039 -46.07260 21774 ft 273 kts 255°
2026-05-05 15:34 -24.91471 -46.09300 21898 ft 274 kts 255°
2026-05-05 15:34 -24.91906 -46.11348 22016 ft 274 kts 255°
2026-05-05 15:34 -24.92339 -46.13395 22131 ft 274 kts 255°
2026-05-05 15:35 -24.92771 -46.15430 22185 ft 277 kts 255°
2026-05-05 15:35 -24.93211 -46.17511 22202 ft 280 kts 255°
2026-05-05 15:35 -24.93802 -46.20305 22202 ft 284 kts 255°
2026-05-05 15:35 -24.94102 -46.21729 22196 ft 281 kts 255°
2026-05-05 15:36 -24.94540 -46.23807 22190 ft 276 kts 255°
2026-05-05 15:36 -24.94972 -46.25852 22187 ft 272 kts 255°
2026-05-05 15:36 -24.95397 -46.27867 22187 ft 268 kts 255°
2026-05-05 15:36 -24.95811 -46.29832 22183 ft 265 kts 255°
2026-05-05 15:37 -24.96232 -46.31829 22182 ft 263 kts 255°
2026-05-05 15:37 -24.96638 -46.33761 22186 ft 261 kts 255°
2026-05-05 15:37 -24.97046 -46.35703 22183 ft 258 kts 255°
2026-05-05 15:37 -24.97450 -46.37622 22183 ft 256 kts 255°
2026-05-05 15:38 -24.97850 -46.39528 22182 ft 254 kts 255°
2026-05-05 15:38 -24.98246 -46.41416 22182 ft 252 kts 255°
2026-05-05 15:38 -24.98640 -46.43295 22184 ft 250 kts 255°
2026-05-05 15:38 -24.99026 -46.45135 22183 ft 249 kts 255°
2026-05-05 15:39 -24.99414 -46.46992 22181 ft 248 kts 255°
2026-05-05 15:39 -24.99801 -46.48837 22183 ft 247 kts 255°
2026-05-05 15:39 -25.00187 -46.50686 22178 ft 246 kts 255°
2026-05-05 15:39 -25.00572 -46.52525 22184 ft 246 kts 255°
2026-05-05 15:40 -25.00957 -46.54366 22187 ft 246 kts 255°
2026-05-05 15:40 -25.01341 -46.56206 22183 ft 246 kts 255°
2026-05-05 15:40 -25.01725 -46.58046 22186 ft 245 kts 255°
2026-05-05 15:40 -25.02106 -46.59878 22182 ft 245 kts 255°
2026-05-05 15:41 -25.02487 -46.61706 22184 ft 244 kts 255°
2026-05-05 15:41 -25.02862 -46.63504 22187 ft 243 kts 255°
2026-05-05 15:41 -25.03240 -46.65325 22181 ft 242 kts 255°
2026-05-05 15:41 -25.03618 -46.67138 22179 ft 242 kts 255°
2026-05-05 15:42 -25.03993 -46.68946 22183 ft 241 kts 255°
2026-05-05 15:42 -25.04369 -46.70755 22183 ft 241 kts 255°
2026-05-05 15:42 -25.04742 -46.72553 22180 ft 240 kts 255°
2026-05-05 15:42 -25.05110 -46.74325 22184 ft 240 kts 255°
2026-05-05 15:43 -25.05482 -46.76122 22184 ft 240 kts 255°
2026-05-05 15:43 -25.05854 -46.77917 22187 ft 239 kts 256°
2026-05-05 15:43 -25.06224 -46.79706 22182 ft 239 kts 256°
2026-05-05 15:43 -25.06595 -46.81496 22178 ft 239 kts 256°
2026-05-05 15:44 -25.06964 -46.83284 22186 ft 238 kts 256°
2026-05-05 15:44 -25.07328 -46.85045 22184 ft 238 kts 256°
2026-05-05 15:44 -25.07696 -46.86828 22185 ft 238 kts 256°
2026-05-05 15:44 -25.08065 -46.88614 22180 ft 238 kts 256°
2026-05-05 15:45 -25.08432 -46.90396 22184 ft 238 kts 256°
2026-05-05 15:45 -25.08799 -46.92176 22181 ft 237 kts 256°
2026-05-05 15:45 -25.09165 -46.93955 22186 ft 237 kts 256°
2026-05-05 15:45 -25.09530 -46.95727 22183 ft 237 kts 256°
2026-05-05 15:46 -25.09895 -46.97500 22179 ft 237 kts 256°
2026-05-05 15:46 -25.10260 -46.99276 22184 ft 237 kts 256°
2026-05-05 15:46 -25.10619 -47.01025 22185 ft 237 kts 256°
2026-05-05 15:46 -25.10983 -47.02797 22188 ft 237 kts 256°
2026-05-05 15:47 -25.11347 -47.04571 22181 ft 236 kts 256°
2026-05-05 15:47 -25.11592 -47.05766 22182 ft 236 kts 256°
2026-05-05 15:47 -25.12072 -47.08108 22184 ft 236 kts 256°
2026-05-05 15:47 -25.12434 -47.09876 22183 ft 236 kts 256°
2026-05-05 15:48 -25.12795 -47.11643 22183 ft 236 kts 256°
2026-05-05 15:48 -25.13157 -47.13409 22185 ft 236 kts 256°
2026-05-05 15:48 -25.13518 -47.15176 22185 ft 236 kts 256°
2026-05-05 15:48 -25.13880 -47.16948 22176 ft 236 kts 256°
2026-05-05 15:49 -25.14241 -47.18718 22178 ft 236 kts 256°
2026-05-05 15:49 -25.14601 -47.20481 22181 ft 236 kts 256°
2026-05-05 15:49 -25.14961 -47.22247 22179 ft 236 kts 256°
2026-05-05 15:49 -25.15316 -47.23993 22183 ft 236 kts 256°
2026-05-05 15:50 -25.15676 -47.25759 22183 ft 236 kts 256°
2026-05-05 15:50 -25.16035 -47.27524 22183 ft 236 kts 256°
2026-05-05 15:50 -25.16394 -47.29292 22183 ft 235 kts 256°
2026-05-05 15:50 -25.16754 -47.31059 22185 ft 235 kts 256°
2026-05-05 15:51 -25.17113 -47.32829 22186 ft 235 kts 256°
2026-05-05 15:51 -25.17471 -47.34592 22185 ft 235 kts 256°
2026-05-05 15:51 -25.17824 -47.36335 22180 ft 235 kts 256°
2026-05-05 15:51 -25.18182 -47.38102 22184 ft 235 kts 256°
2026-05-05 15:52 -25.18540 -47.39866 22187 ft 235 kts 256°
2026-05-05 15:52 -25.18896 -47.41628 22185 ft 235 kts 256°
2026-05-05 15:52 -25.19253 -47.43389 22181 ft 235 kts 256°
2026-05-05 15:52 -25.19611 -47.45158 22176 ft 235 kts 256°
2026-05-05 15:53 -25.19966 -47.46918 22187 ft 235 kts 256°
2026-05-05 15:53 -25.20318 -47.48661 22177 ft 235 kts 256°
2026-05-05 15:53 -25.20673 -47.50422 22181 ft 235 kts 256°
2026-05-05 15:53 -25.21028 -47.52181 22179 ft 235 kts 256°
2026-05-05 15:54 -25.21383 -47.53943 22179 ft 235 kts 256°
2026-05-05 15:54 -25.21738 -47.55707 22178 ft 235 kts 256°
2026-05-05 15:54 -25.22092 -47.57468 22179 ft 235 kts 256°
2026-05-05 15:54 -25.22448 -47.59232 22172 ft 235 kts 256°
2026-05-05 15:55 -25.22801 -47.60994 22181 ft 235 kts 256°
2026-05-05 15:55 -25.23157 -47.62761 22181 ft 235 kts 256°
2026-05-05 15:55 -25.23510 -47.64522 22182 ft 235 kts 256°
2026-05-05 15:55 -25.23860 -47.66265 22173 ft 235 kts 256°
2026-05-05 15:56 -25.24213 -47.68028 22178 ft 235 kts 256°
2026-05-05 15:56 -25.24566 -47.69791 22176 ft 235 kts 256°
2026-05-05 15:56 -25.24918 -47.71550 22182 ft 235 kts 256°
2026-05-05 15:56 -25.25271 -47.73311 22181 ft 235 kts 256°
2026-05-05 15:57 -25.25623 -47.75073 22185 ft 235 kts 256°
2026-05-05 15:57 -25.25975 -47.76836 22176 ft 235 kts 256°
2026-05-05 15:57 -25.26326 -47.78596 22181 ft 235 kts 256°
2026-05-05 15:57 -25.26679 -47.80360 22178 ft 235 kts 256°
2026-05-05 15:58 -25.27030 -47.82125 22181 ft 235 kts 256°
2026-05-05 15:58 -25.27381 -47.83882 22182 ft 235 kts 256°
2026-05-05 15:58 -25.27731 -47.85642 22174 ft 235 kts 256°
2026-05-05 15:58 -25.28078 -47.87382 22181 ft 235 kts 256°
2026-05-05 15:59 -25.28428 -47.89142 22182 ft 235 kts 256°
2026-05-05 15:59 -25.28778 -47.90904 22184 ft 234 kts 256°
2026-05-05 15:59 -25.29127 -47.92663 22178 ft 234 kts 256°
2026-05-05 15:59 -25.29478 -47.94425 22179 ft 235 kts 256°
2026-05-05 16:00 -25.29826 -47.96186 22183 ft 234 kts 256°
2026-05-05 16:00 -25.30177 -47.97951 22179 ft 234 kts 256°
2026-05-05 16:00 -25.30527 -47.99719 22178 ft 234 kts 256°
2026-05-05 16:00 -25.30871 -48.01454 22173 ft 234 kts 256°
2026-05-05 16:01 -25.31219 -48.03216 22175 ft 234 kts 256°
2026-05-05 16:01 -25.31569 -48.04982 22180 ft 234 kts 256°
2026-05-05 16:01 -25.31917 -48.06746 22182 ft 234 kts 256°
2026-05-05 16:01 -25.32266 -48.08510 22174 ft 234 kts 256°
2026-05-05 16:02 -25.32612 -48.10270 22176 ft 234 kts 256°
2026-05-05 16:02 -25.32957 -48.12014 22180 ft 235 kts 256°
2026-05-05 16:02 -25.33305 -48.13781 22182 ft 235 kts 256°
2026-05-05 16:02 -25.33653 -48.15552 22178 ft 235 kts 257°
2026-05-05 16:03 -25.34002 -48.17321 22186 ft 235 kts 256°
2026-05-05 16:03 -25.34350 -48.19087 22186 ft 235 kts 257°
2026-05-05 16:03 -25.34692 -48.20830 22186 ft 235 kts 257°
2026-05-05 16:03 -25.35039 -48.22599 22184 ft 235 kts 257°
2026-05-05 16:04 -25.35387 -48.24369 22187 ft 235 kts 257°
2026-05-05 16:04 -25.35733 -48.26136 22178 ft 235 kts 257°
2026-05-05 16:04 -25.36079 -48.27901 22183 ft 235 kts 257°
2026-05-05 16:04 -25.36425 -48.29669 22177 ft 235 kts 257°
2026-05-05 16:05 -25.36773 -48.31440 22175 ft 235 kts 257°
2026-05-05 16:05 -25.37117 -48.33195 22185 ft 235 kts 257°
2026-05-05 16:05 -25.37461 -48.34964 22187 ft 235 kts 257°
2026-05-05 16:05 -25.37807 -48.36732 22190 ft 235 kts 257°
2026-05-05 16:06 -25.38151 -48.38496 22189 ft 235 kts 257°
2026-05-05 16:06 -25.38496 -48.40259 22194 ft 234 kts 257°
2026-05-05 16:06 -25.38841 -48.42029 22193 ft 234 kts 257°
2026-05-05 16:06 -25.39180 -48.43769 22185 ft 234 kts 257°
2026-05-05 16:07 -25.39523 -48.45530 22189 ft 234 kts 257°
2026-05-05 16:07 -25.39866 -48.47290 22192 ft 234 kts 257°
2026-05-05 16:07 -25.40209 -48.49056 22193 ft 234 kts 257°
2026-05-05 16:07 -25.40552 -48.50820 22185 ft 234 kts 257°
2026-05-05 16:08 -25.40893 -48.52578 22188 ft 234 kts 257°
2026-05-05 16:08 -25.41236 -48.54342 22190 ft 235 kts 257°
2026-05-05 16:08 -25.41574 -48.56087 22196 ft 235 kts 257°
2026-05-05 16:08 -25.41917 -48.57852 22190 ft 235 kts 257°
2026-05-05 16:09 -25.42258 -48.59621 22190 ft 234 kts 257°
2026-05-05 16:09 -25.42601 -48.61386 22198 ft 235 kts 257°
2026-05-05 16:09 -25.42942 -48.63154 22198 ft 235 kts 257°
2026-05-05 16:09 -25.43284 -48.64920 22192 ft 234 kts 257°
2026-05-05 16:10 -25.43621 -48.66667 22196 ft 234 kts 257°
2026-05-05 16:10 -25.43962 -48.68431 22202 ft 234 kts 257°
2026-05-05 16:10 -25.44301 -48.70188 22195 ft 233 kts 257°
2026-05-05 16:10 -25.44640 -48.71945 22200 ft 233 kts 257°
2026-05-05 16:11 -25.44978 -48.73699 22199 ft 233 kts 257°
2026-05-05 16:11 -25.45987 -48.78945 22200 ft 233 kts 257°
2026-05-05 16:12 -25.46322 -48.80701 22208 ft 233 kts 257°
2026-05-05 16:12 -25.46999 -48.84208 22220 ft 233 kts 257°
2026-05-05 16:13 -25.48005 -48.89462 22236 ft 232 kts 257°
2026-05-05 16:13 -25.48333 -48.91186 22241 ft 231 kts 257°
2026-05-05 16:13 -25.48666 -48.92920 22246 ft 230 kts 257°
2026-05-05 16:14 -25.49328 -48.96383 22252 ft 230 kts 257°
2026-05-05 16:14 -25.49988 -48.99848 22266 ft 230 kts 257°
2026-05-05 16:15 -25.50648 -49.03314 22280 ft 230 kts 257°
2026-05-05 16:15 -25.51310 -49.06781 22284 ft 231 kts 257°
2026-05-05 16:16 -25.51967 -49.10255 22285 ft 231 kts 257°
2026-05-05 16:16 -25.52628 -49.13721 22291 ft 231 kts 257°
2026-05-05 16:17 -25.53805 -49.16971 22272 ft 231 kts 228°
2026-05-05 16:17 -25.55144 -49.17960 22290 ft 234 kts 208°
2026-05-05 16:18 -25.57656 -49.19112 22291 ft 234 kts 208°
2026-05-05 16:18 -25.59125 -49.19901 22287 ft 234 kts 210°
2026-05-05 16:18 -25.62542 -49.21736 22284 ft 235 kts 209°
2026-05-05 16:19 -25.63520 -49.22253 22284 ft 235 kts 209°
2026-05-05 16:19 -25.64994 -49.23040 22280 ft 236 kts 210°
2026-05-05 16:19 -25.67954 -49.24617 22273 ft 236 kts 209°
2026-05-05 16:20 -25.70913 -49.26196 22261 ft 237 kts 210°
2026-05-05 16:20 -25.73886 -49.27781 22259 ft 236 kts 210°
2026-05-05 16:21 -25.76843 -49.29359 22248 ft 237 kts 210°
2026-05-05 16:22 -25.81301 -49.31742 22239 ft 237 kts 210°
2026-05-05 16:22 -25.84246 -49.33316 22233 ft 236 kts 210°
2026-05-05 16:23 -25.87206 -49.34899 22225 ft 236 kts 210°
2026-05-05 16:23 -25.88688 -49.35691 22224 ft 235 kts 210°
2026-05-05 16:23 -25.91622 -49.37265 22217 ft 236 kts 210°
2026-05-05 16:24 -25.93101 -49.38056 22222 ft 236 kts 210°
2026-05-05 16:24 -25.94576 -49.38843 22228 ft 235 kts 210°
2026-05-05 16:24 -25.97526 -49.40427 22226 ft 235 kts 210°
2026-05-05 16:25 -25.99005 -49.41218 22226 ft 235 kts 210°
2026-05-05 16:25 -26.01959 -49.42804 22226 ft 235 kts 210°
2026-05-05 16:25 -26.03434 -49.43595 22227 ft 235 kts 210°
2026-05-05 16:26 -26.06389 -49.45179 22232 ft 235 kts 210°
2026-05-05 16:26 -26.09345 -49.46769 22229 ft 236 kts 210°
2026-05-05 16:27 -26.10833 -49.47565 22225 ft 236 kts 210°
2026-05-05 16:27 -26.12290 -49.48353 22229 ft 236 kts 210°
2026-05-05 16:27 -26.13773 -49.49149 22229 ft 236 kts 210°
2026-05-05 16:27 -26.15254 -49.49944 22228 ft 236 kts 210°
2026-05-05 16:28 -26.16731 -49.50740 22232 ft 236 kts 210°
2026-05-05 16:28 -26.18209 -49.51535 22227 ft 236 kts 210°
2026-05-05 16:28 -26.19685 -49.52329 22226 ft 235 kts 210°
2026-05-05 16:28 -26.21160 -49.53125 22225 ft 235 kts 210°
2026-05-05 16:29 -26.22616 -49.53907 22230 ft 235 kts 210°
2026-05-05 16:29 -26.24090 -49.54701 22231 ft 235 kts 210°
2026-05-05 16:29 -26.25566 -49.55497 22230 ft 235 kts 210°
2026-05-05 16:29 -26.27043 -49.56295 22227 ft 236 kts 210°
2026-05-05 16:30 -26.28520 -49.57090 22224 ft 235 kts 210°
2026-05-05 16:30 -26.29996 -49.57884 22227 ft 235 kts 210°
2026-05-05 16:30 -26.31453 -49.58669 22232 ft 235 kts 210°
2026-05-05 16:30 -26.32927 -49.59468 22232 ft 235 kts 210°
2026-05-05 16:31 -26.34396 -49.60262 22229 ft 235 kts 210°
2026-05-05 16:31 -26.35872 -49.61057 22231 ft 235 kts 210°
2026-05-05 16:31 -26.37343 -49.61850 22223 ft 235 kts 210°
2026-05-05 16:31 -26.38808 -49.62643 22224 ft 234 kts 210°
2026-05-05 16:32 -26.40275 -49.63435 22224 ft 234 kts 210°
2026-05-05 16:32 -26.41719 -49.64216 22229 ft 233 kts 210°
2026-05-05 16:32 -26.43182 -49.65007 22230 ft 233 kts 210°
2026-05-05 16:32 -26.44639 -49.65795 22226 ft 233 kts 210°
2026-05-05 16:33 -26.46095 -49.66583 22224 ft 232 kts 211°
2026-05-05 16:33 -26.47557 -49.67374 22229 ft 233 kts 210°
2026-05-05 16:33 -26.49016 -49.68164 22231 ft 233 kts 210°
2026-05-05 16:33 -26.50474 -49.68953 22230 ft 233 kts 210°
2026-05-05 16:34 -26.51915 -49.69734 22228 ft 233 kts 210°
2026-05-05 16:34 -26.53373 -49.70523 22228 ft 233 kts 210°
2026-05-05 16:34 -26.54835 -49.71318 22229 ft 233 kts 210°
2026-05-05 16:34 -26.56297 -49.72108 22227 ft 233 kts 210°
2026-05-05 16:35 -26.57754 -49.72898 22225 ft 232 kts 211°
2026-05-05 16:35 -26.59194 -49.73679 22229 ft 232 kts 210°
2026-05-05 16:35 -26.60649 -49.74468 22225 ft 232 kts 210°
2026-05-05 16:35 -26.62103 -49.75260 22223 ft 233 kts 211°
2026-05-05 16:36 -26.63562 -49.76052 22224 ft 233 kts 210°
2026-05-05 16:36 -26.65024 -49.76843 22221 ft 233 kts 210°
2026-05-05 16:36 -26.66480 -49.77633 22221 ft 233 kts 211°
2026-05-05 16:36 -26.67943 -49.78429 22224 ft 233 kts 211°
2026-05-05 16:37 -26.69402 -49.79223 22225 ft 233 kts 211°
2026-05-05 16:37 -26.70845 -49.80008 22220 ft 234 kts 210°
2026-05-05 16:37 -26.72310 -49.80802 22211 ft 234 kts 210°
2026-05-05 16:37 -26.73768 -49.81596 22215 ft 232 kts 211°
2026-05-05 16:38 -26.75223 -49.82388 22207 ft 231 kts 211°
2026-05-05 16:38 -26.76668 -49.83175 22217 ft 231 kts 211°
2026-05-05 16:38 -26.78116 -49.83964 22218 ft 231 kts 211°
2026-05-05 16:38 -26.79563 -49.84750 22220 ft 231 kts 211°
2026-05-05 16:39 -26.81004 -49.85536 22217 ft 230 kts 211°
2026-05-05 16:39 -26.82449 -49.86322 22217 ft 230 kts 211°
2026-05-05 16:39 -26.83892 -49.87108 22215 ft 230 kts 211°
2026-05-05 16:39 -26.85331 -49.87894 22212 ft 230 kts 211°
2026-05-05 16:40 -26.86771 -49.88680 22210 ft 230 kts 211°
2026-05-05 16:40 -26.88194 -49.89453 22206 ft 230 kts 211°
2026-05-05 16:40 -26.89634 -49.90243 22216 ft 230 kts 211°
2026-05-05 16:40 -26.91074 -49.91029 22214 ft 230 kts 211°
2026-05-05 16:41 -26.92518 -49.91815 22216 ft 230 kts 211°
2026-05-05 16:41 -26.93958 -49.92601 22218 ft 230 kts 211°
2026-05-05 16:41 -26.95400 -49.93390 22216 ft 230 kts 211°
2026-05-05 16:41 -26.96841 -49.94180 22221 ft 230 kts 211°
2026-05-05 16:42 -26.98283 -49.94966 22214 ft 230 kts 211°
2026-05-05 16:42 -26.99708 -49.95742 22217 ft 231 kts 211°
2026-05-05 16:42 -27.01150 -49.96532 22219 ft 230 kts 211°
2026-05-05 16:42 -27.02594 -49.97324 22220 ft 230 kts 211°
2026-05-05 16:43 -27.04031 -49.98109 22216 ft 229 kts 211°
2026-05-05 16:43 -27.05466 -49.98894 22218 ft 229 kts 211°
2026-05-05 16:43 -27.06904 -49.99680 22218 ft 229 kts 211°
2026-05-05 16:43 -27.08333 -50.00464 22218 ft 228 kts 211°
2026-05-05 16:44 -27.09740 -50.01238 22216 ft 228 kts 211°
2026-05-05 16:44 -27.11168 -50.02018 22216 ft 228 kts 211°
2026-05-05 16:44 -27.12594 -50.02799 22216 ft 228 kts 211°
2026-05-05 16:44 -27.14020 -50.03581 22214 ft 228 kts 211°
2026-05-05 16:45 -27.15443 -50.04362 22212 ft 227 kts 211°
2026-05-05 16:45 -27.16873 -50.05145 22216 ft 227 kts 211°
2026-05-05 16:45 -27.18292 -50.05926 22219 ft 227 kts 211°
2026-05-05 16:45 -27.19717 -50.06707 22217 ft 227 kts 211°
2026-05-05 16:46 -27.21126 -50.07481 22216 ft 228 kts 211°
2026-05-05 16:46 -27.22546 -50.08262 22212 ft 227 kts 211°
2026-05-05 16:46 -27.23976 -50.09045 22209 ft 227 kts 212°
2026-05-05 16:46 -27.25397 -50.09826 22214 ft 227 kts 212°
2026-05-05 16:47 -27.26813 -50.10607 22212 ft 226 kts 211°
2026-05-05 16:47 -27.28229 -50.11385 22213 ft 226 kts 211°
2026-05-05 16:47 -27.29623 -50.12151 22216 ft 226 kts 211°
2026-05-05 16:47 -27.31032 -50.12926 22215 ft 226 kts 211°
2026-05-05 16:48 -27.32446 -50.13704 22216 ft 226 kts 212°
2026-05-05 16:48 -27.33861 -50.14485 22214 ft 227 kts 211°
2026-05-05 16:48 -27.35278 -50.15264 22216 ft 227 kts 211°
2026-05-05 16:48 -27.36701 -50.16046 22215 ft 227 kts 212°
2026-05-05 16:49 -27.38101 -50.16820 22210 ft 227 kts 211°
2026-05-05 16:49 -27.39524 -50.17602 22213 ft 227 kts 212°
2026-05-05 16:49 -27.40947 -50.18387 22215 ft 227 kts 211°
2026-05-05 16:49 -27.42363 -50.19167 22212 ft 227 kts 212°
2026-05-05 16:50 -27.43779 -50.19950 22213 ft 227 kts 212°
2026-05-05 16:50 -27.45196 -50.20733 22211 ft 227 kts 212°
2026-05-05 16:50 -27.46613 -50.21514 22212 ft 227 kts 211°
2026-05-05 16:50 -27.48030 -50.22294 22215 ft 227 kts 212°
2026-05-05 16:51 -27.49430 -50.23068 22211 ft 227 kts 212°
2026-05-05 16:51 -27.50847 -50.23852 22212 ft 227 kts 212°
2026-05-05 16:51 -27.52268 -50.24634 22212 ft 226 kts 212°
2026-05-05 16:51 -27.53685 -50.25419 22213 ft 226 kts 212°
2026-05-05 16:52 -27.55098 -50.26203 22212 ft 226 kts 212°
2026-05-05 16:52 -27.56493 -50.26974 22210 ft 227 kts 212°
2026-05-05 16:52 -27.57909 -50.27756 22211 ft 226 kts 212°
2026-05-05 16:52 -27.59322 -50.28537 22214 ft 226 kts 212°
2026-05-05 16:53 -27.60734 -50.29318 22209 ft 226 kts 212°
2026-05-05 16:53 -27.62147 -50.30101 22213 ft 226 kts 212°
2026-05-05 16:53 -27.63564 -50.30887 22214 ft 226 kts 212°
2026-05-05 16:53 -27.64979 -50.31669 22211 ft 226 kts 212°
2026-05-05 16:54 -27.66392 -50.32453 22212 ft 226 kts 212°
2026-05-05 16:54 -27.67806 -50.33237 22212 ft 226 kts 212°
2026-05-05 16:54 -27.69205 -50.34012 22221 ft 226 kts 212°
2026-05-05 16:54 -27.70618 -50.34797 22212 ft 227 kts 212°
2026-05-05 16:55 -27.72037 -50.35582 22214 ft 226 kts 212°
2026-05-05 16:55 -27.73453 -50.36368 22213 ft 226 kts 212°
2026-05-05 16:55 -27.74868 -50.37156 22207 ft 226 kts 212°
2026-05-05 16:55 -27.76267 -50.37931 22211 ft 226 kts 212°
2026-05-05 16:56 -27.77679 -50.38715 22205 ft 225 kts 212°
2026-05-05 16:56 -27.79087 -50.39500 22208 ft 225 kts 212°
2026-05-05 16:56 -27.80492 -50.40279 22214 ft 225 kts 212°
2026-05-05 16:56 -27.81894 -50.41058 22206 ft 224 kts 212°
2026-05-05 16:57 -27.83299 -50.41838 22223 ft 225 kts 212°
2026-05-05 16:57 -27.84703 -50.42620 22208 ft 225 kts 212°
2026-05-05 16:57 -27.86093 -50.43395 22221 ft 225 kts 212°
2026-05-05 16:57 -27.87503 -50.44179 22210 ft 225 kts 212°
2026-05-05 16:58 -27.88911 -50.44963 22207 ft 225 kts 212°
2026-05-05 16:58 -27.90318 -50.45746 22203 ft 225 kts 212°
2026-05-05 16:58 -27.91725 -50.46529 22205 ft 225 kts 212°
2026-05-05 16:58 -27.93115 -50.47304 22207 ft 225 kts 212°
2026-05-05 16:59 -27.94518 -50.48088 22196 ft 224 kts 212°
2026-05-05 16:59 -27.95912 -50.48863 22196 ft 223 kts 212°
2026-05-05 16:59 -27.97306 -50.49640 22199 ft 223 kts 212°
2026-05-05 16:59 -27.98699 -50.50417 22198 ft 223 kts 212°
2026-05-05 17:00 -28.00089 -50.51195 22197 ft 223 kts 212°
2026-05-05 17:00 -28.01463 -50.51960 22204 ft 223 kts 212°
2026-05-05 17:00 -28.02857 -50.52738 22204 ft 223 kts 212°
2026-05-05 17:00 -28.04246 -50.53515 22203 ft 223 kts 212°
2026-05-05 17:01 -28.05641 -50.54295 22201 ft 223 kts 212°
2026-05-05 17:01 -28.07033 -50.55072 22205 ft 223 kts 212°
2026-05-05 17:01 -28.08427 -50.55852 22204 ft 223 kts 212°
2026-05-05 17:01 -28.09822 -50.56631 22203 ft 223 kts 212°
2026-05-05 17:02 -28.11217 -50.57411 22203 ft 223 kts 212°
2026-05-05 17:02 -28.12590 -50.58180 22197 ft 223 kts 212°
2026-05-05 17:02 -28.13979 -50.58957 22197 ft 223 kts 212°
2026-05-05 17:02 -28.15373 -50.59736 22198 ft 223 kts 212°
2026-05-05 17:03 -28.16763 -50.60516 22198 ft 223 kts 212°
2026-05-05 17:03 -28.18154 -50.61294 22202 ft 223 kts 213°
2026-05-05 17:03 -28.19529 -50.62065 22196 ft 223 kts 212°
2026-05-05 17:03 -28.20920 -50.62845 22198 ft 223 kts 213°
2026-05-05 17:04 -28.22310 -50.63623 22193 ft 222 kts 213°
2026-05-05 17:04 -28.23698 -50.64401 22191 ft 222 kts 213°
2026-05-05 17:04 -28.25086 -50.65182 22196 ft 222 kts 213°
2026-05-05 17:04 -28.26473 -50.65960 22192 ft 222 kts 212°
2026-05-05 17:05 -28.27863 -50.66738 22193 ft 222 kts 213°
2026-05-05 17:05 -28.29236 -50.67511 22189 ft 223 kts 213°
2026-05-05 17:05 -28.30628 -50.68292 22182 ft 222 kts 212°
2026-05-05 17:05 -28.32014 -50.69059 22181 ft 221 kts 213°
2026-05-05 17:06 -28.33388 -50.69846 22178 ft 221 kts 213°
2026-05-05 17:06 -28.34307 -50.70365 22177 ft 221 kts 213°
2026-05-05 17:06 -28.36159 -50.71402 22175 ft 222 kts 213°
2026-05-05 17:06 -28.37076 -50.71915 22177 ft 222 kts 213°
2026-05-05 17:07 -28.38992 -50.72758 22162 ft 230 kts 196°
2026-05-05 17:07 -28.40071 -50.72882 22188 ft 230 kts 194°
2026-05-05 17:07 -28.41644 -50.73040 22190 ft 230 kts 193°
2026-05-05 17:07 -28.43240 -50.73199 22190 ft 230 kts 193°
2026-05-05 17:08 -28.44839 -50.73352 22187 ft 230 kts 193°
2026-05-05 17:08 -28.46443 -50.73460 22184 ft 231 kts 192°
2026-05-05 17:08 -28.48052 -50.73569 22181 ft 231 kts 192°
2026-05-05 17:08 -28.49653 -50.73682 22187 ft 231 kts 192°
2026-05-05 17:09 -28.51264 -50.73798 22185 ft 231 kts 192°
2026-05-05 17:09 -28.52868 -50.73915 22180 ft 231 kts 192°
2026-05-05 17:09 -28.54478 -50.74031 22182 ft 232 kts 192°
2026-05-05 17:09 -28.56067 -50.74146 22184 ft 232 kts 192°
2026-05-05 17:10 -28.57677 -50.74263 22183 ft 232 kts 192°
2026-05-05 17:10 -28.59293 -50.74379 22178 ft 233 kts 192°
2026-05-05 17:10 -28.60913 -50.74498 22179 ft 233 kts 192°
2026-05-05 17:10 -28.62534 -50.74616 22181 ft 234 kts 192°
2026-05-05 17:11 -28.64159 -50.74734 22177 ft 235 kts 192°
2026-05-05 17:11 -28.65788 -50.74854 22174 ft 235 kts 192°
2026-05-05 17:11 -28.67422 -50.74974 22178 ft 235 kts 192°
2026-05-05 17:11 -28.69063 -50.75095 22177 ft 236 kts 192°
2026-05-05 17:12 -28.70704 -50.75217 22174 ft 237 kts 192°
2026-05-05 17:12 -28.72348 -50.75340 22173 ft 237 kts 192°
2026-05-05 17:12 -28.73991 -50.75464 22167 ft 236 kts 192°
2026-05-05 17:12 -28.75607 -50.75584 22168 ft 235 kts 192°
2026-05-05 17:13 -28.77235 -50.75711 22168 ft 234 kts 193°
2026-05-05 17:13 -28.78869 -50.75836 22164 ft 235 kts 193°
2026-05-05 17:13 -28.80511 -50.75960 22168 ft 236 kts 193°
2026-05-05 17:13 -28.82167 -50.76082 22011 ft 243 kts 192°
2026-05-05 17:14 -28.83890 -50.76222 21714 ft 251 kts 193°
2026-05-05 17:14 -28.85643 -50.76375 21411 ft 254 kts 192°
2026-05-05 17:14 -28.87415 -50.76535 21151 ft 256 kts 192°
2026-05-05 17:14 -28.89172 -50.76697 20876 ft 257 kts 192°
2026-05-05 17:15 -28.90956 -50.76859 20590 ft 258 kts 192°
2026-05-05 17:15 -28.92750 -50.77036 20298 ft 257 kts 194°
2026-05-05 17:15 -28.94505 -50.77370 20042 ft 254 kts 199°
2026-05-05 17:15 -28.96209 -50.77856 19775 ft 252 kts 202°
2026-05-05 17:16 -28.97922 -50.78342 19518 ft 253 kts 201°
2026-05-05 17:16 -28.99648 -50.78817 19256 ft 254 kts 200°
2026-05-05 17:16 -29.01342 -50.79284 18957 ft 253 kts 201°
2026-05-05 17:16 -29.03050 -50.79758 18710 ft 251 kts 200°
2026-05-05 17:17 -29.04745 -50.80231 18464 ft 250 kts 200°
2026-05-05 17:17 -29.06437 -50.80708 18178 ft 249 kts 200°
2026-05-05 17:17 -29.08112 -50.81185 17876 ft 248 kts 201°
2026-05-05 17:17 -29.09787 -50.81662 17592 ft 248 kts 200°
2026-05-05 17:18 -29.11442 -50.82133 17312 ft 248 kts 200°
2026-05-05 17:18 -29.13119 -50.82608 17040 ft 247 kts 201°
2026-05-05 17:18 -29.14796 -50.83080 16790 ft 247 kts 200°
2026-05-05 17:18 -29.16448 -50.83544 16539 ft 247 kts 200°
2026-05-05 17:19 -29.18123 -50.84017 16275 ft 248 kts 200°
2026-05-05 17:19 -29.19806 -50.84508 15983 ft 250 kts 201°
2026-05-05 17:19 -29.21496 -50.85007 15755 ft 250 kts 201°
2026-05-05 17:19 -29.23186 -50.85490 15533 ft 250 kts 201°
2026-05-05 17:20 -29.24890 -50.85982 15184 ft 255 kts 200°
2026-05-05 17:20 -29.26625 -50.86493 14827 ft 259 kts 201°
2026-05-05 17:20 -29.28373 -50.87006 14476 ft 260 kts 201°
2026-05-05 17:20 -29.30127 -50.87523 14107 ft 261 kts 201°
2026-05-05 17:21 -29.31894 -50.88047 13713 ft 263 kts 201°
2026-05-05 17:21 -29.33645 -50.88567 13336 ft 263 kts 201°
2026-05-05 17:21 -29.35421 -50.89099 12953 ft 263 kts 200°
2026-05-05 17:22 -29.38968 -50.90195 12195 ft 263 kts 201°
2026-05-05 17:22 -29.40736 -50.90753 11821 ft 264 kts 201°
2026-05-05 17:22 -29.42509 -50.91317 11491 ft 262 kts 201°
2026-05-05 17:22 -29.44243 -50.91866 11136 ft 256 kts 201°
2026-05-05 17:23 -29.45920 -50.92395 10804 ft 251 kts 200°
2026-05-05 17:23 -29.47594 -50.92927 10470 ft 247 kts 201°
2026-05-05 17:23 -29.49237 -50.93451 10169 ft 244 kts 201°
2026-05-05 17:23 -29.50867 -50.93972 9814 ft 242 kts 201°
2026-05-05 17:24 -29.52479 -50.94488 9458 ft 239 kts 200°
2026-05-05 17:24 -29.54080 -50.95005 9124 ft 238 kts 201°
2026-05-05 17:24 -29.55659 -50.95516 8753 ft 237 kts 200°
2026-05-05 17:24 -29.57239 -50.96045 8375 ft 236 kts 201°
2026-05-05 17:25 -29.58812 -50.96589 8032 ft 236 kts 201°
2026-05-05 17:25 -29.59859 -50.96952 7805 ft 237 kts 201°
2026-05-05 17:25 -29.61958 -50.97685 7369 ft 238 kts 201°
2026-05-05 17:25 -29.63546 -50.98253 7067 ft 238 kts 201°
2026-05-05 17:26 -29.65129 -50.98825 6785 ft 238 kts 201°
2026-05-05 17:26 -29.66716 -50.99409 6482 ft 239 kts 201°
2026-05-05 17:26 -29.68315 -50.99956 6176 ft 240 kts 195°
2026-05-05 17:26 -29.69994 -51.00031 5811 ft 244 kts 178°
2026-05-05 17:27 -29.71665 -50.99860 5507 ft 244 kts 178°
2026-05-05 17:27 -29.73356 -50.99702 5235 ft 241 kts 178°
2026-05-05 17:27 -29.75009 -50.99553 4989 ft 234 kts 179°
2026-05-05 17:27 -29.76587 -50.99394 4895 ft 222 kts 178°
2026-05-05 17:28 -29.78110 -50.99230 4721 ft 215 kts 178°
2026-05-05 17:28 -29.79559 -50.99071 4509 ft 209 kts 178°
2026-05-05 17:28 -29.80978 -50.98910 4438 ft 198 kts 178°
2026-05-05 17:28 -29.82325 -50.98761 4373 ft 193 kts 178°
2026-05-05 17:29 -29.83653 -50.98621 4391 ft 190 kts 176°
2026-05-05 17:29 -29.84963 -50.98458 4337 ft 189 kts 179°
2026-05-05 17:29 -29.86267 -50.98323 4345 ft 187 kts 178°
2026-05-05 17:29 -29.87565 -50.98176 4306 ft 187 kts 178°
2026-05-05 17:30 -29.88855 -50.98030 4241 ft 187 kts 178°
2026-05-05 17:30 -29.90167 -50.97883 4017 ft 191 kts 178°
2026-05-05 17:30 -29.91504 -50.97724 3722 ft 195 kts 178°
2026-05-05 17:30 -29.92846 -50.97565 3432 ft 198 kts 178°
2026-05-05 17:31 -29.94222 -50.97407 3181 ft 201 kts 178°
2026-05-05 17:31 -29.95660 -50.97257 2864 ft 212 kts 178°
2026-05-05 17:31 -29.97128 -50.97125 2596 ft 212 kts 178°
2026-05-05 17:31 -29.98560 -50.97299 2280 ft 205 kts 207°
2026-05-05 17:32 -29.99445 -50.98390 2292 ft 176 kts 253°
2026-05-05 17:32 -29.99447 -50.99679 2366 ft 152 kts 281°
2026-05-05 17:32 -29.99513 -51.00891 2234 ft 157 kts 258°
2026-05-05 17:32 -29.99838 -51.02120 1951 ft 167 kts 255°
2026-05-05 17:33 -30.00225 -51.03370 1893 ft 160 kts 247°
2026-05-05 17:33 -30.00624 -51.04559 1704 ft 159 kts 261°
2026-05-05 17:33 -30.00610 -51.05813 1461 ft 156 kts 281°
2026-05-05 17:33 -30.00380 -51.07056 1056 ft 157 kts 281°
2026-05-05 17:34 -30.00253 -51.08240 983 ft 139 kts 281°
2026-05-05 17:34 -30.00072 -51.09230 930 ft 122 kts 285°
2026-05-05 17:34 -29.99870 -51.10226 940 ft 128 kts 286°
2026-05-05 17:34 -29.99655 -51.11244 881 ft 138 kts 280°
2026-05-05 17:35 -29.99594 -51.12349 758 ft 132 kts 273°
2026-05-05 17:35 -29.99594 -51.13356 579 ft 121 kts 271°
2026-05-05 17:35 -29.99551 -51.14281 359 ft 111 kts 275°
2026-05-05 17:35 -29.99508 -51.15172 105 ft 111 kts 271°
2026-05-05 17:36 -29.99488 -51.15989 21 ft 93 kts 272°
2026-05-05 17:36 -29.99475 -51.16636 19 ft 62 kts 271°
2026-05-05 17:36 -29.99464 -51.17091 17 ft 51 kts 272°
2026-05-05 17:36 -29.99458 -51.17454 18 ft 38 kts 271°
2026-05-05 17:37 -29.99451 -51.17681 21 ft 19 kts 291°
2026-05-05 17:37 -29.99403 -51.17709 21 ft 12 kts
2026-05-05 17:37 -29.99262 -51.17702 19 ft 18 kts
2026-05-05 17:37 -29.99183 -51.17711 19 ft 10 kts 325°
2026-05-05 17:38 -29.99167 -51.17786 19 ft 7 kts 244°
2026-05-05 17:38 -29.99199 -51.17800 19 ft 5 kts 176°
2026-05-05 17:38 -29.99218 -51.17800 20 ft 0 kts 183°